Location: Overspoor
(51.4747°N, 5.6641°E)
Time: 14:37:57
(UTC+01:00)

ISS - Visible Passes

Search period start: 21 January 2019 00:00
Search period end: 31 January 2019 00:00
Orbit: 404 x 410 km, 51.6° (Epoch: 22 January)

Date Brightness Start Highest point End Pass type
(mag) Time Alt. Az. Time Alt. Az. Time Alt. Az.
22 Jan -1.0 19:29:54 10° S 19:30:01 11° S 19:30:01 11° S visible
23 Jan -1.3 18:40:22 10° SSE 18:40:59 10° SE 18:41:05 10° SE visible
23 Jan -0.6 20:13:42 10° SW 20:13:49 11° SW 20:13:49 11° SW visible
24 Jan -2.2 19:22:43 10° SSW 19:24:48 25° S 19:24:48 25° S visible
25 Jan -2.0 18:31:58 10° SSW 18:34:27 20° SE 18:35:43 16° ESE visible
25 Jan -1.2 20:07:18 10° WSW 20:08:26 20° WSW 20:08:26 20° WSW visible
26 Jan -3.4 19:16:04 10° SW 19:19:16 48° SSE 19:19:16 48° SSE visible
27 Jan -2.8 18:24:58 10° SW 18:27:59 34° SSE 18:30:03 17° E visible
27 Jan -1.8 20:01:01 10° W 20:02:46 29° W 20:02:46 29° W visible
28 Jan -3.8 19:09:39 10° WSW 19:12:57 73° SSE 19:13:30 56° ESE visible
28 Jan -0.2 20:46:11 10° W 20:46:13 10° W 20:46:13 10° W visible
29 Jan -3.4 18:18:20 10° WSW 18:21:34 56° SSE 18:24:13 15° E visible
29 Jan -2.3 19:54:46 10° W 19:56:55 38° W 19:56:55 38° W visible
30 Jan -3.9 19:03:20 10° W 19:06:39 89° N 19:07:36 44° E visible
30 Jan -0.4 20:39:54 10° W 20:40:19 13° W 20:40:19 13° W visible
